Regional Weather Roundup
Issued by NWS

Home | Current Version | Previous Version | Text Only | Print | Product List | Glossary On
Versions: 1 2 3 4 5 6 7 8 9 10 11 12 13 14 15 16 17 18 19 20 21 22 23 24 25 26 27 28 29 30 31 32 33 34 35 36 37 38 39 40 41 42 43 44 45 46 47 48 49 50
000
ASUS43 KTOP 152059
RWRKS

WEATHER ROUNDUP FOR KANSAS
NATIONAL WEATHER SERVICE GOODLAND KS
300 PM CST SUN JAN 15 2017

NOTE:  "FAIR" INDICATES FEW OR NO CLOUDS BELOW 12,000 FEET WITH NO
SIGNIFICANT WEATHER AND/OR OBSTRUCTIONS TO VISIBILITY.

KSZ001>006-013>018-027>032-041>047-152200-
NORTHWEST KANSAS

CITY           SKY/WX    TMP DP  RH WIND       PRES   REMARKS
GOODLAND       FRZ RAIN  30  30 100 SE5       30.02S FOG
HAYS           MIX PCPN  30  29  96 E5        30.10F
HILL CITY      CLOUDY    30  30 100 NE6       30.10F FOG
RUSSELL        FRZ RAIN  30  29  96 NE7       30.08F
$$

KSZ061>065-074>080-084>089-152200-
SOUTHWEST KANSAS

CITY           SKY/WX    TMP DP  RH WIND       PRES   REMARKS
DODGE CITY     CLOUDY    31  30  96 NE6       30.04F FOG
ELKHART          N/A     31  25  79 NE6         N/A
GARDEN CITY    CLOUDY    31  29  92 NE6       30.01F
GREAT BEND     MIX PCPN  31  30  96 E3        30.10S
LIBERAL        CLOUDY    32  27  80 CALM      30.00F
$$

KSZ066>073-081>083-090>101-152200-
SOUTHEAST KANSAS

CITY           SKY/WX    TMP DP  RH WIND       PRES   REMARKS
CHANUTE        CLOUDY    36  34  92 NE3       30.16F
HUTCHINSON     FRZ DRZL  32  31  96 E10       30.09F FOG     WCI  24
MEDICINE LODGE   N/A     32  31  96 CALM      30.08S
NEWTON         MIX PCPN  32  31  96 E6        30.11F
PARSONS        CLOUDY    38  36  92 NE5       30.15F
WICHITA INTL   RAIN      34  33  96 E9        30.09F FOG
WICHITA JABRA  MIX PCPN  32  32 100 E6        30.10F FOG
WICHITA MCCONL LGT RAIN  32  32 100 CALM      30.09F
WINFIELD       RAIN      35  35 100 E9        30.11F FOG
$$

KSZ007>012-019>026-033>040-048>060-102>105-152200-
NORTHEAST KANSAS

CITY           SKY/WX    TMP DP  RH WIND       PRES   REMARKS
CONCORDIA      FRZ RAIN  30  30 100 E6        30.15F FOG
EMPORIA        CLOUDY    32  32 100 E9        30.14F FOG
LAWRENCE       LGT RAIN  33  33 100 NE5       30.21S FOG
MANHATTAN      LGT RAIN  33  31  92 E8        30.16F FOG
OLATHE IND     CLOUDY    32  32 100 CALM      30.20R FOG
OLATHE EXE     CLOUDY    32  32 100 E7        30.18F FOG
SALINA         FRZ RAIN  32  30  92 NE7       30.15F
TOPEKA BILLARD FRZ RAIN  33  30  88 E8        30.19F FOG
TOPEKA FORBES  LGT RAIN  33  32  96 E5        30.19F FOG
$$




USA.gov is the U.S. government's official web portal to all federal, state and local government web resources and services.